Weather History for Akron, CO

Change the Weather History Date:

Wednesday, March 9, 2011

  Actual Average Record
Temperature  
Mean Temperature 34 °F 38 °F  
Max Temperature 46 °F 51 °F 77 °F (1989)
Min Temperature 21 °F 25 °F -2 °F (1969)
Degree Days  
Heating Degree Days 32    
Month to date heating degree days  
Cooling Degree Days 0    
Month to date cooling degree days  
Moisture  
Dew Point 17 °F    
Average Humidity 55    
Maximum Humidity 88    
Minimum Humidity 22    
Precipitation  
Precipitation 0.00 in 0.03 in 0.41 in (1992)
Month to date precipitation 0.20  
Year to date precipitation 0.94  
Sea Level Pressure  
Sea Level Pressure 30.28 in    
Wind  
Wind Speed 13 mph (WNW)    
Max Wind Speed 31 mph    
Max Gust Speed 39 mph    
Visibility 10 miles    
Events      
T = Trace of Precipitation, MM = Missing Value Source: NWS Daily Summary

Daily Weather History Graph

Daily Weather History Graph

Search for Another Location

Airport:

Trip Planner

Search our weather history database for the weather conditions in past years. The results will help you decide how hot, cold, wet, or windy it might be!

Date:

Astronomy

Mar. 09, 2011 Rise Set
Actual Time 6:14 AM MST 5:53 PM MST
Civil Twilight 5:47 AM MST 6:20 PM MST
Nautical Twilight 5:15 AM MST 6:51 PM MST
Astronomical Twilight 4:44 AM MST 7:23 PM MST
Moon 8:06 AM MST (3/9) 10:53 PM MST (3/9)
Length of Visible Light 12h 32m
Length of Day
11h 38m
Waxing Crescent, 20% of the Moon is Illuminated
Mar 9
Waxing Crescent
Mar 12
First Quarter
Mar 19
Full
Mar 26
Last Quarter
Apr 3
New

Hourly Weather History & Observations

Time (MST) Temp. Windchill Dew Point Humidity Pressure Visibility Wind Dir Wind Speed Gust Speed Precip Events Conditions
12:53 AM 21.0 °F 11.4 °F 18.0 °F 88% 30.16 in 8.0 mi WSW 8.1 mph - N/A   Clear
1:53 AM 23.0 °F 11.7 °F 19.0 °F 85% 30.15 in 8.0 mi WSW 11.5 mph - N/A   Mostly Cloudy
2:53 AM 24.1 °F 13.7 °F 19.0 °F 81% 30.14 in 10.0 mi West 10.4 mph - N/A   Overcast
3:53 AM 25.0 °F 13.1 °F 19.9 °F 81% 30.16 in 10.0 mi West 13.8 mph - N/A   Overcast
4:53 AM 26.1 °F 15.6 °F 19.9 °F 78% 30.17 in 10.0 mi WNW 11.5 mph - N/A   Overcast
5:53 AM 27.0 °F 16.1 °F 19.9 °F 75% 30.22 in 10.0 mi WNW 12.7 mph 26.5 mph N/A   Partly Cloudy
6:53 AM 24.1 °F 13.1 °F 18.0 °F 77% 30.26 in 10.0 mi West 11.5 mph - N/A   Clear
7:53 AM 28.9 °F 19.8 °F 21.0 °F 72% 30.30 in 10.0 mi WNW 10.4 mph - N/A   Clear
8:53 AM 36.0 °F 25.0 °F 21.9 °F 57% 30.30 in 10.0 mi NW 20.7 mph 28.8 mph N/A   Clear
9:53 AM 39.0 °F 29.0 °F 21.0 °F 49% 30.31 in 10.0 mi NNW 20.7 mph 27.6 mph N/A   Clear
10:53 AM 42.1 °F 32.3 °F 19.0 °F 40% 30.32 in 10.0 mi NNW 24.2 mph 32.2 mph N/A   Clear
11:53 AM 44.1 °F 36.5 °F 17.1 °F 34% 30.30 in 10.0 mi NW 17.3 mph 29.9 mph N/A   Partly Cloudy
12:53 PM 46.0 °F 37.6 °F 15.1 °F 29% 30.29 in 10.0 mi NNW 24.2 mph 34.5 mph N/A   Partly Cloudy
1:53 PM 46.9 °F - 10.9 °F 23% 30.27 in 10.0 mi North 31.1 mph 39.1 mph N/A   Clear
2:53 PM 46.9 °F - 10.0 °F 22% 30.28 in 10.0 mi NNW 25.3 mph 32.2 mph N/A   Clear
3:53 PM 46.9 °F - 10.0 °F 22% 30.29 in 10.0 mi NNW 23.0 mph - N/A   Clear
4:53 PM 45.0 °F 36.4 °F 14.0 °F 29% 30.30 in 10.0 mi NNW 23.0 mph 31.1 mph N/A   Clear
5:53 PM 39.0 °F 32.3 °F 16.0 °F 39% 30.33 in 10.0 mi North 10.4 mph - N/A   Clear
6:53 PM 33.1 °F 24.4 °F 17.1 °F 52% 30.36 in 10.0 mi East 11.5 mph - N/A   Clear
7:53 PM 32.0 °F 26.4 °F 18.0 °F 56% 30.37 in 10.0 mi SSW 5.8 mph - N/A   Clear
8:53 PM 30.0 °F - 18.0 °F 61% 30.36 in 10.0 mi Calm Calm - N/A   Clear
9:53 PM 30.9 °F 24.3 °F 18.0 °F 59% 30.34 in 10.0 mi SW 6.9 mph - N/A   Clear
10:53 PM 28.0 °F 20.0 °F 18.0 °F 66% 30.33 in 10.0 mi SSW 8.1 mph - N/A   Clear
11:53 PM 33.1 °F 24.9 °F 17.1 °F 52% 30.30 in 10.0 mi SSW 10.4 mph - N/A   Clear